Regional Weather Roundup
Issued by NWS Cleveland, OH

Home | Current Version | Previous Version | Graphics & Text | Print | Product List | Glossary On
Versions: 1 2 3 4 5 6 7 8 9 10 11 12 13 14 15 16 17 18 19 20 21 22 23 24 25 26 27 28 29 30 31 32 33 34 35 36 37 38 39 40 41 42 43 44 45 46 47 48 49 50
000
ASUS41 KCLE 260302
RWRCLE
OHIO REGIONAL WEATHER ROUNDUP
NATIONAL WEATHER SERVICE CLEVELAND, OH
1000 PM EST SAT FEB 25 2017

NOTE: "FAIR" INDICATES FEW OR NO CLOUDS BELOW 12,000 FEET WITH NO
SIGNIFICANT WEATHER AND/OR OBSTRUCTIONS TO VISIBILITY.

OHZ001>008-015>018-024>027-034-035-043-044-260400-
   NORTHWEST OHIO

CITY           SKY/WX    TMP DP  RH WIND       PRES   REMARKS
DEFIANCE       CLOUDY    25  16  68 W8        29.99R WCI  16
FINDLAY        CLOUDY    28  14  55 W14G26    29.97R WCI  17
TOLEDO EXPRESS CLOUDY    25  15  66 W12G24    29.98R WCI  14
TOLEDO EXEC    LGT SNOW  26  19  74 W20G30    29.99R WCI  12
LIMA           CLOUDY    28  22  78 W15       29.98R WCI  16
$$

OHZ009>014-019>023-028>033-038-089-260400-
   NORTHEAST OHIO

CITY           SKY/WX    TMP DP  RH WIND       PRES   REMARKS
CLE-HOPKINS    FLURRIES  29  17  61 W15G23    29.97R WCI  18
CLE-LAKEFRONT  FLURRIES  30  19  63 W30G37    29.95R WCI  15
CUY CO. ARPT   FLURRIES  30  19  64 W17G28    29.94R WCI  18
LORAIN-ELYRIA  FLURRIES  26  18  71 W12       29.97R WCI  16
ASHTABULA      LGT SNOW  27  21  78 W17G25    29.91R WCI  14
AKRON-CANTON   FLURRIES  27  14  58 W17G31    29.94R WCI  14
WOOSTER        FLURRIES  26  17  68 W18G24    29.96R WCI  13
MANSFIELD      FLURRIES  25  18  74 W13G20    29.95R WCI  14
YOUNGSTOWN     FLURRIES  27  17  66 W14G25    29.90R WCI  16
$$

OHZ042-051>053-060>062-070>072-077>081-260400-
  SOUTHWEST OHIO

CITY           SKY/WX    TMP DP  RH WIND       PRES   REMARKS
CINC-COVINGTON PTCLDY    29  16  58 SW5       30.04S WCI  24
CINC-LUNKEN    PTCLDY    31  17  56 SW8       30.08R WCI  23
HAMILTON       PTCLDY    31  18  58 W8        30.06S WCI  23
DAYTON         CLOUDY    29  19  66 W13       30.02R WCI  19
WRIGHT-PAT AFB CLOUDY    30  18  60 W9        30.02R WCI  22
DAYTON GENERAL CLOUDY    30  17  58 SW8       30.01S WCI  22
WILMINGTON     CLOUDY    30  16  56 W15G22    30.02R WCI  19
$$

OHZ036-037-039>041-045>050-054>059-063>069-073>076-082>088-260400-
  CENTRAL AND SOUTHEAST OHIO

CITY           SKY/WX    TMP DP  RH WIND       PRES   REMARKS
COLUMBUS       CLOUDY    31  19  61 W16       30.02R WCI  20
OSU AIRPORT    CLOUDY    29  19  66 W17       30.01R WCI  17
BOLTON FIELD   NOT AVBL
RICKENBACK AFB CLOUDY    29  20  68 W10       30.03R WCI  20
NEWARK         CLOUDY    29  17  61 W12G22    30.01R WCI  19
MARION         CLOUDY    28  19  69 W12       29.99R WCI  18
LANCASTER      CLOUDY    31  20  63 W6        30.03R WCI  25
ZANESVILLE     CLOUDY    29  16  58 W17G28    30.01R WCI  17
NEW PHILLY     NOT AVBL
$$




USA.gov is the U.S. government's official web portal to all federal, state and local government web resources and services.